Skip Page Navigation
NASA JPL Caltech
NASA Logo - Jet Propulsion Laboratory + View the NASA Portal
+ Near-Earth Object (NEO) Program
Search JPL
JPL Home Earth Solar System Stars & Galaxies Technology
JPL Solar System Dynamics
BODIES ORBITS EPHEMERIDES TOOLS PHYSICAL DATA DISCOVERY FAQ SITE MAP
JPL Small-Body Database Browser
Search: [ help ]  
230111 (2001 BE10)
Classification: Aten [NEO, PHA]          SPK-ID: 2230111
Ephemeris | Orbit Diagram | Orbital Elements | Physical Parameters | Discovery Circumstances | Close-Approach Data ]

[ hide orbit diagram ]
Orbit Diagram
Note: Make sure you have Java enabled on your browser to see the applet. This applet is provided as a 3D orbit visualization tool. The applet was implemented using 2-body methods, and hence should not be used for determining accurate long-term trajectories (over several years or decades) or planetary encounter circumstances. For accurate long-term ephemerides, please instead use our Horizons system.
Orbit Viewer

Additional Notes: the orbits shown in the applet are color coded. The planets are white lines, and the asteroid/comet is a blue line. The bright white line indicates the portion of the orbit that is above the ecliptic plane, and the darker portion is below the ecliptic plane. Likewise for the asteroid/comet orbit, the light blue indicates the portion above the ecliptic plane, and the dark blue the portion below the ecliptic plane.

Orbit Viewer applet originally written and kindly provided by Osamu Ajiki (AstroArts), and further modified by Ron Baalke (JPL).


Orbital Elements at Epoch 2456400.5 (2013-Apr-18.0) TDB
Reference: JPL 104 (heliocentric ecliptic J2000)
 Element Value Uncertainty (1-sigma)   Units 
e .3691034466020867 1.3958e-07  
a .8231525034466249 1.1555e-09 AU
q .5193240773453397 1.1524e-07 AU
i 17.51091568858945 1.1616e-05 deg
node 297.8218176478499 3.0783e-06 deg
peri 30.55933209609785 1.2432e-05 deg
M 259.0910914710501 3.0867e-05 deg
tp 2456476.962041591044
(2013-Jul-03.46204159)
2.336e-05 JED
period 272.7839927520257
0.75
5.7436e-07
1.573e-09
d
yr
n 1.319725532162212 2.7787e-09 deg/d
Q 1.12698092954791 1.5819e-09 AU
  Orbit Determination Parameters
   # obs. used (total)      725  
   # delay obs. used      2  
   # Doppler obs. used      1  
   data-arc span      4405 days (12.06 yr)  
   first obs. used      2001-01-18  
   last obs. used      2013-02-09  
   planetary ephem.      DE405  
   SB-pert. ephem.      SB405-CPV-2  
   condition code      0  
   fit RMS      .5285  
   data source      ORB  
   producer      Otto Matic  
   solution date      2013-Apr-29 15:40:48  

Additional Information
 Earth MOID = .0411756 AU 
 T_jup = 7.026 
[ show covariance matrix ]

Ephemeris | Orbit Diagram | Orbital Elements | Physical Parameters | Discovery Circumstances | Close-Approach Data ]

Physical Parameter Table
Parameter Symbol Value Units Sigma Reference Notes
absolute magnitude H 18.997 mag .6614 104 autocmod 2.5c
rotation period rot_per 4.194 h n/a Asteroid Lightcurve DataBase (Rev. 2013-May-01) Published Reference List:
[Warner, B.D. (2007) Minor Planet Bul. 34, 72-77.]
[Pray, D.P. (2011) http://www.geocities.com/dppray_2000/]

230111 (2001 BE10)          Discovered 2001-Jan-18 by LINEAR at Socorro (704)
Reference: 20100130/Numbers.arcLast Updated: 2010-02-01

[ show close-approach data ]
Ephemeris | Orbit Diagram | Orbital Elements | Physical Parameters | Discovery Circumstances | Close-Approach Data ]
ABOUT SSD CREDITS/AWARDS PRIVACY/COPYRIGHT GLOSSARY LINKS
FirstGov 2013-May-24 23:20 UT
(server date/time)  
NASA Home Page
Site Manager:   Donald K. Yeomans
Webmaster  Alan B. Chamberlin